Location: Hiekkapohja
(62.3333°N, 25.7833°E)
Time: 19:49:03
(UTC+00:00)

CENTAUR R/B - Pass Details

Date: 07 August 2020
Orbit: 756 x 1432 km, 63.4° (Epoch: 26 September)

Event Time Altitude Azimuth Distance (km) Brightness Sun altitude
Rises 00:29:34 0° 261° (W) 3,708 5.2 -7.5°
Reaches altitude 10° 00:31:59 10° 262° (W) 2,848 4.6 -7.3°
Maximum altitude 00:38:51 84° 352° (N) 1,188 3.0 -6.9°
Drops below altitude 10° 00:46:59 10° 81° (E) 3,343 6.0 -6.4°
Sets 00:50:02 0° 83° (E) 4,387 6.6 -6.2°
